Zurück zum Katalog

SL-12 DEB

AktivHEO
NORAD 43541·DEBRIS·🇷🇺 Russia

Gestartet Oct 26, 2007 von Baikonur Cosmodrome

Loading…

Nächste Überflüge (nächste 24 Stunden)

TLE

AktuellSource: Space-Track

Epoche: Sep 13, 2026, 23:03 UTC

1 43541U 07052AH  26256.96065664  .00000338  00000-0  53649-3 0  9998
2 43541  64.8647 242.7028 5743374 206.4989 106.6952  4.26380293127433

Verfolge SL-12 DEB in Echtzeit mit AllMySat

Download on the App Store